| time (UTC) | temp F | wind direction | speed MPH | gust MPH | rain 1hr in | rain 24hr in | rain mn in | humidity % | barometer mb |
| 20260506061821 | 34 | 257 | 0.0 | 6.0 | 0.00 | 0.16 | 0.16 | 91 | 1019.8 |
| 20260506060335 | 35 | 257 | 1.0 | 4.0 | 0.00 | 0.16 | 0.16 | 92 | 1019.8 |
| 20260506050329 | 34 | 256 | 0.0 | 0.0 | 0.02 | 0.16 | 0.16 | 90 | 1019.7 |
| 20260506044822 | 35 | 256 | 0.0 | 0.0 | 0.02 | 0.16 | 0.16 | 90 | 1019.7 |
| 20260506043316 | 36 | 256 | 1.0 | 6.0 | 0.01 | 0.15 | 0.15 | 91 | 1019.5 |
| 20260506041829 | 37 | 262 | 3.0 | 12.0 | 0.01 | 0.15 | 0.15 | 92 | 1020.1 |
| 20260506040323 | 37 | 264 | 0.0 | 2.0 | 0.00 | 0.14 | 0.14 | 92 | 1019.7 |
| 20260506034816 | 37 | 264 | 1.0 | 4.0 | 0.00 | 0.14 | 0.14 | 92 | 1019.4 |
| 20260506033353 | 37 | 264 | 2.0 | 7.0 | 0.01 | 0.14 | 0.14 | 92 | 1019.6 |
| 20260506031823 | 37 | 264 | 0.0 | 3.0 | 0.01 | 0.14 | 0.14 | 91 | 1019.4 |
| 20260506030338 | 37 | 264 | 1.0 | 4.0 | 0.01 | 0.14 | 0.14 | 91 | 1018.7 |
| 20260506024830 | 37 | 272 | 1.0 | 3.0 | 0.03 | 0.14 | 0.14 | 91 | 1018.7 |
| 20260506023325 | 37 | 272 | 0.0 | 3.0 | 0.03 | 0.13 | 0.13 | 90 | 1018.4 |
| 20260506021838 | 37 | 272 | 1.0 | 6.0 | 0.03 | 0.13 | 0.13 | 89 | 1018.7 |
| 20260506020312 | 37 | 274 | 0.0 | 3.0 | 0.03 | 0.12 | 0.12 | 87 | 1018.7 |
| 20260506014826 | 38 | 275 | 2.0 | 9.0 | 0.02 | 0.11 | 0.11 | 87 | 1018.0 |
| 20260506013322 | 38 | 289 | 0.0 | 2.0 | 0.02 | 0.10 | 0.10 | 89 | 1018.0 |
| 20260506011814 | 38 | 289 | 0.0 | 0.0 | 0.03 | 0.10 | 0.10 | 88 | 1017.9 |
| 20260506010312 | 38 | 289 | 0.0 | 4.0 | 0.03 | 0.09 | 0.09 | 87 | 1017.5 |
| 20260506004827 | 38 | 291 | 1.0 | 12.0 | 0.04 | 0.09 | 0.09 | 88 | 1017.5 |
| 20260506003322 | 38 | 278 | 2.0 | 9.0 | 0.04 | 0.08 | 0.08 | 88 | 1017.6 |
| 20260506001816 | 39 | 243 | 3.0 | 10.0 | 0.03 | 0.07 | 0.07 | 89 | 1017.4 |
| 20260506000330 | 38 | 244 | 0.0 | 0.0 | 0.02 | 0.06 | 0.06 | 88 | 1017.1 |
| 20260505234824 | 38 | 244 | 0.0 | 0.0 | 0.02 | 0.05 | 0.05 | 87 | 1017.5 |
| 20260505233320 | 37 | 244 | 0.0 | 2.0 | 0.02 | 0.04 | 0.04 | 87 | 1017.9 |
| 20260505231832 | 37 | 244 | 1.0 | 10.0 | 0.04 | 0.04 | 0.04 | 82 | 1017.8 |
| 20260505230325 | 40 | 290 | 8.0 | 14.0 | 0.04 | 0.04 | 0.04 | 74 | 1017.6 |
| 20260505224840 | 42 | 291 | 0.0 | 2.0 | 0.03 | 0.03 | 0.03 | 80 | 1017.0 |
| 20260505223314 | 44 | 291 | 2.0 | 11.0 | 0.02 | 0.02 | 0.02 | 72 | 1017.5 |
| 20260505221827 | 47 | 271 | 3.0 | 13.0 | 0.00 | 0.00 | 0.00 | 59 | 1017.3 |
| 20260505220321 | 48 | 253 | 6.0 | 12.0 | 0.00 | 0.00 | 0.00 | 52 | 1017.4 |
| 20260505214816 | 49 | 253 | 3.0 | 10.0 | 0.00 | 0.00 | 0.00 | 51 | 1017.6 |
| 20260505213332 | 50 | 264 | 4.0 | 8.0 | 0.00 | 0.00 | 0.00 | 50 | 1017.9 |
| 20260505211818 | 50 | 264 | 5.0 | 9.0 | 0.00 | 0.00 | 0.00 | 48 | 1018.2 |
| 20260505210339 | 53 | 242 | 4.0 | 11.0 | 0.00 | 0.00 | 0.00 | 45 | 1018.5 |
| 20260505204813 | 52 | 239 | 5.0 | 12.0 | 0.00 | 0.00 | 0.00 | 47 | 1018.2 |
| 20260505203327 | 49 | 203 | 2.0 | 8.0 | 0.00 | 0.00 | 0.00 | 54 | 1018.5 |
| 20260505201820 | 49 | 225 | 2.0 | 7.0 | 0.00 | 0.00 | 0.00 | 56 | 1018.9 |
| 20260505200334 | 46 | 253 | 3.0 | 10.0 | 0.00 | 0.00 | 0.00 | 60 | 1019.2 |
| 20260505194828 | 46 | 278 | 3.0 | 8.0 | 0.00 | 0.00 | 0.00 | 65 | 1019.1 |
| 20260505193317 | 45 | 279 | 2.0 | 9.0 | 0.00 | 0.00 | 0.00 | 65 | 1019.1 |
| 20260505191837 | 45 | 263 | 2.0 | 9.0 | 0.00 | 0.00 | 0.00 | 61 | 1019.3 |
| 20260505190323 | 47 | 271 | 4.0 | 15.0 | 0.00 | 0.00 | 0.00 | 58 | 1019.5 |
| 20260505184823 | 49 | 231 | 4.0 | 10.0 | 0.00 | 0.00 | 0.00 | 50 | 1019.1 |
| 20260505183312 | 47 | 263 | 3.0 | 12.0 | 0.00 | 0.00 | 0.00 | 49 | 1019.0 |
| 20260505181854 | 46 | 220 | 4.0 | 13.0 | 0.00 | 0.00 | 0.00 | 48 | 1019.2 |
| 20260505180320 | 47 | 270 | 4.0 | 9.0 | 0.00 | 0.00 | 0.00 | 44 | 1018.8 |
| 20260505174842 | 47 | 253 | 1.0 | 9.0 | 0.00 | 0.00 | 0.00 | 43 | 1018.7 |
| 20260505173337 | 49 | 270 | 7.0 | 13.0 | 0.00 | 0.00 | 0.00 | 37 | 1018.6 |
| 20260505171812 | 49 | 239 | 3.0 | 9.0 | 0.00 | 0.00 | 0.00 | 34 | 1018.3 |
| 20260505170326 | 50 | 191 | 5.0 | 9.0 | 0.00 | 0.00 | 0.00 | 35 | 1018.5 |
| 20260505164839 | 50 | 237 | 2.0 | 23.0 | 0.00 | 0.00 | 0.00 | 32 | 1018.3 |
| 20260505163334 | 49 | 241 | 5.0 | 12.0 | 0.00 | 0.00 | 0.00 | 35 | 1018.3 |
| 20260505161825 | 48 | 195 | 3.0 | 8.0 | 0.00 | 0.00 | 0.00 | 38 | 1018.3 |
| 20260505160340 | 47 | 251 | 1.0 | 7.0 | 0.00 | 0.00 | 0.00 | 38 | 1018.8 |
| 20260505153354 | 45 | 181 | 3.0 | 6.0 | 0.00 | 0.00 | 0.00 | 46 | 1019.1 |
| 20260505151819 | 45 | 245 | 5.0 | 13.0 | 0.00 | 0.00 | 0.00 | 52 | 1019.3 |
| 20260505150312 | 44 | 198 | 3.0 | 9.0 | 0.00 | 0.00 | 0.00 | 58 | 1019.4 |
| 20260505140329 | 43 | 244 | 1.0 | 10.0 | 0.00 | 0.00 | 0.00 | 60 | 1019.3 |
| 20260505124813 | 42 | 252 | 2.0 | 11.0 | 0.00 | 0.00 | 0.00 | 60 | 1019.1 |
| 20260505123329 | 42 | 264 | 2.0 | 13.0 | 0.00 | 0.00 | 0.00 | 59 | 1019.1 |
| 20260505121822 | 42 | 270 | 6.0 | 9.0 | 0.00 | 0.00 | 0.00 | 57 | 1019.2 |
| 20260505120315 | 42 | 263 | 2.0 | 11.0 | 0.00 | 0.00 | 0.00 | 56 | 1019.1 |
| 20260505114838 | 42 | 257 | 5.0 | 13.0 | 0.00 | 0.00 | 0.00 | 55 | 1019.1 |
| 20260505113324 | 42 | 257 | 4.0 | 14.0 | 0.00 | 0.00 | 0.00 | 54 | 1019.0 |
| 20260505111817 | 43 | 278 | 4.0 | 14.0 | 0.00 | 0.00 | 0.00 | 52 | 1019.1 |
| 20260505110311 | 43 | 251 | 3.0 | 11.0 | 0.00 | 0.00 | 0.00 | 51 | 1019.3 |
| 20260505101813 | 43 | 250 | 1.0 | 8.0 | 0.00 | 0.00 | 0.00 | 49 | 1019.4 |
| 20260505100312 | 43 | 252 | 4.0 | 9.0 | 0.00 | 0.00 | 0.00 | 49 | 1019.3 |
| 20260505094826 | 43 | 257 | 3.0 | 7.0 | 0.00 | 0.00 | 0.00 | 49 | 1019.3 |
| 20260505093322 | 43 | 254 | 2.0 | 4.0 | 0.00 | 0.00 | 0.00 | 49 | 1019.4 |
| 20260505091814 | 43 | 254 | 2.0 | 8.0 | 0.00 | 0.00 | 0.00 | 49 | 1019.4 |
| 20260505090350 | 44 | 253 | 1.0 | 7.0 | 0.00 | 0.00 | 0.00 | 48 | 1019.8 |
| 20260505084831 | 44 | 255 | 1.0 | 8.0 | 0.00 | 0.00 | 0.00 | 47 | 1020.2 |
| 20260505083332 | 44 | 253 | 3.0 | 9.0 | 0.00 | 0.00 | 0.00 | 47 | 1020.5 |
| 20260505081826 | 45 | 243 | 1.0 | 8.0 | 0.00 | 0.00 | 0.00 | 46 | 1020.5 |
| 20260505080323 | 45 | 241 | 2.0 | 5.0 | 0.00 | 0.00 | 0.00 | 46 | 1020.7 |
| 20260505074841 | 45 | 271 | 1.0 | 9.0 | 0.00 | 0.00 | 0.00 | 45 | 1020.8 |
| 20260505073335 | 45 | 291 | 4.0 | 11.0 | 0.00 | 0.00 | 0.00 | 44 | 1021.1 |
| 20260505071822 | 46 | 249 | 6.0 | 13.0 | 0.00 | 0.00 | 0.00 | 42 | 1020.8 |
| 20260505070316 | 46 | 268 | 3.0 | 14.0 | 0.00 | 0.00 | 0.00 | 39 | 1020.7 |